Weather History for Hot Springs, AR

Change the Weather History Date:

Wednesday, June 19, 2013

  Actual Average Record
Temperature  
Mean Temperature 76 °F -  
Max Temperature 88 °F 90 °F 103 °F (1953)
Min Temperature 64 °F 67 °F 57 °F (1999)
Cooling Degree Days 11    
Growing Degree Days 26 (Base 50)    
Moisture  
Dew Point 65 °F    
Average Humidity 70    
Maximum Humidity 94    
Minimum Humidity 43    
Precipitation  
Precipitation 0.00 in - - ()
Sea Level Pressure  
Sea Level Pressure 30.01 in    
Wind  
Wind Speed 2 mph (SE)    
Max Wind Speed 8 mph    
Max Gust Speed -    
Visibility 10 miles    
Events      
Averages and records for this station are not official NWS values.
T = Trace of Precipitation, MM = Missing Value Source: NWS Daily Summary

Daily Weather History Graph

Daily Weather History Graph

Search for Another Location

Airport:

Trip Planner

Search our weather history database for the weather conditions in past years. The results will help you decide how hot, cold, wet, or windy it might be!

Date:

Astronomy

Jun. 19, 2013 Rise Set
Actual Time 5:59 AM CDT 8:27 PM CDT
Civil Twilight 5:30 AM CDT 8:57 PM CDT
Nautical Twilight 4:54 AM CDT 9:33 PM CDT
Astronomical Twilight 4:14 AM CDT 10:13 PM CDT
Moon 4:27 PM CDT (6/19) 2:36 AM CDT (6/19)
Length of Visible Light 15h 26m
Length of Day
14h 27m
Waxing Gibbous, 80% of the Moon is Illuminated
Jun 19
Waxing Gibbous
Jun 23
Full
Jun 29
Last Quarter
Jul 8
New
Jul 15
First Quarter

Hourly Weather History & Observations

Time (CDT) Temp. Heat Index Dew Point Humidity Pressure Visibility Wind Dir Wind Speed Gust Speed Precip Events Conditions
12:53 AM 68.0 °F - 64.9 °F 90% 29.98 in 10.0 mi Calm Calm - N/A   Clear
1:53 AM 66.0 °F - 64.0 °F 93% 29.97 in 10.0 mi Calm Calm - N/A   Clear
2:53 AM 66.0 °F - 64.0 °F 93% 29.96 in 9.0 mi Calm Calm - N/A   Clear
3:53 AM 66.0 °F - 64.0 °F 93% 29.98 in 9.0 mi Calm Calm - N/A   Clear
4:53 AM 64.9 °F - 63.0 °F 93% 29.99 in 9.0 mi Calm Calm - N/A   Clear
5:41 AM 64.4 °F - 62.6 °F 94% 30.01 in 9.0 mi Calm Calm - N/A   Scattered Clouds
5:53 AM 64.0 °F - 61.0 °F 90% 30.00 in 10.0 mi Calm Calm - N/A   Mostly Cloudy
6:05 AM 64.4 °F - 62.6 °F 94% 30.02 in 8.0 mi Calm Calm - N/A   Scattered Clouds
6:53 AM 66.0 °F - 63.0 °F 90% 30.02 in 8.0 mi Calm Calm - N/A   Clear
7:53 AM 71.1 °F - 66.0 °F 84% 30.04 in 10.0 mi Calm Calm - N/A   Clear
8:53 AM 75.0 °F - 66.9 °F 76% 30.04 in 10.0 mi Calm Calm - N/A   Clear
9:53 AM 79.0 °F - 66.9 °F 66% 30.04 in 10.0 mi South 4.6 mph - N/A   Clear
10:53 AM 81.0 °F 83.0 °F 66.0 °F 60% 30.04 in 10.0 mi SE 5.8 mph - N/A   Clear
11:53 AM 84.0 °F 86.3 °F 66.0 °F 55% 30.04 in 10.0 mi South 6.9 mph - N/A   Partly Cloudy
12:53 PM 84.9 °F 87.1 °F 66.0 °F 53% 30.03 in 10.0 mi SSW 5.8 mph - N/A   Mostly Cloudy
1:53 PM 86.0 °F 87.6 °F 64.9 °F 49% 30.03 in 10.0 mi Variable 3.5 mph - N/A   Partly Cloudy
2:53 PM 88.0 °F 89.3 °F 64.0 °F 45% 30.01 in 10.0 mi SSE 8.1 mph - N/A   Clear
3:53 PM 88.0 °F 89.3 °F 64.0 °F 45% 29.99 in 10.0 mi SSE 6.9 mph - N/A   Clear
4:53 PM 88.0 °F 89.3 °F 64.0 °F 45% 29.98 in 10.0 mi Variable 5.8 mph - N/A   Clear
5:53 PM 87.1 °F 87.5 °F 62.1 °F 43% 29.96 in 10.0 mi ESE 6.9 mph - N/A   Clear
6:53 PM 86.0 °F 86.3 °F 62.1 °F 44% 29.98 in 10.0 mi SE 6.9 mph - N/A   Clear
7:53 PM 84.0 °F 85.4 °F 64.0 °F 51% 29.99 in 10.0 mi SE 4.6 mph - N/A   Clear
8:53 PM 81.0 °F 83.0 °F 66.0 °F 60% 29.99 in 10.0 mi ESE 4.6 mph - N/A   Clear
9:53 PM 77.0 °F - 66.9 °F 71% 30.00 in 10.0 mi East 3.5 mph - N/A   Clear
10:53 PM 75.9 °F - 66.9 °F 74% 30.02 in 10.0 mi Calm Calm - N/A   Clear
11:53 PM 75.0 °F - 66.9 °F 76% 30.02 in 10.0 mi Calm Calm - N/A   Clear